EW6672 Weather Reports


time (UTC)temp
F
wind
direction
speed
knots
gust
knots
rain 1hr
in
rain 24hr
in
rain mn
in
humidity
%
barometer
mb
20260507132526 61 225 1.7 3.5 0.00 0.10 0.10
20260507131516 62 158 2.6 7.0 0.00 0.10 0.10
20260507130516 61 23 1.7 4.3 0.00 0.10 0.10
20260507125516 62 135 2.6 9.6 0.00 0.10 0.10
20260507124516 61 158 1.7 5.2 0.00 0.10 0.10
20260507123516 61 135 2.6 5.2 0.00 0.10 0.10
20260507122516 60 0.0 2.6 0.00 0.10 0.10
20260507121516 59 68 1.7 3.5 0.00 0.10 0.10
20260507120536 58 68 2.6 6.1 0.00 0.10 0.10
20260507115516 57 68 3.5 7.8 0.00 0.10 0.10
20260507114516 57 45 2.6 5.2 0.00 0.10 0.10
20260507113536 58 68 2.6 9.6 0.00 0.10 0.10
20260507112516 58 68 2.6 7.8 0.00 0.10 0.10
20260507111516 56 68 3.5 8.7 0.00 0.10 0.10
20260507110516 56 68 4.3 8.7 0.00 0.10 0.10
20260507105516 56 68 5.2 10.4 0.00 0.10 0.10
20260507104516 56 68 6.1 12.2 0.00 0.10 0.10
20260507103516 55 68 6.1 13.0 0.00 0.10 0.10
20260507102516 53 68 4.3 11.3 0.00 0.10 0.10
20260507101517 53 68 5.2 11.3 0.00 0.10 0.10
20260507100516 52 68 3.5 8.7 0.00 0.10 0.10
20260507095516 51 68 4.3 10.4 0.00 0.10 0.10
20260507094516 50 68 3.5 8.7 0.00 0.10 0.10
20260507093516 50 68 3.5 7.0 0.00 0.10 0.10
20260507092516 50 45 3.5 7.8 0.00 0.10 0.10
20260507091536 50 45 3.5 13.0 0.00 0.10 0.10
20260507090516 50 45 3.5 13.0 0.00 0.10 0.10
20260507085536 49 45 3.5 7.8 0.00 0.10 0.10
20260507084516 49 45 3.5 7.8 0.01 0.10 0.10
20260507083536 49 68 5.2 15.6 0.01 0.10 0.10
20260507082516 50 45 3.5 11.3 0.01 0.10 0.10
20260507081516 50 45 2.6 7.0 0.01 0.10 0.10
20260507080516 50 68 1.7 5.2 0.01 0.10 0.10
20260507075516 50 45 2.6 9.6 0.01 0.10 0.10
20260507074516 50 68 3.5 9.6 0.01 0.09 0.09
20260507073536 50 68 3.5 6.1 0.01 0.09 0.09
20260507072516 49 68 3.5 9.6 0.02 0.09 0.09
20260507071516 49 68 3.5 7.0 0.02 0.09 0.09
20260507070536 47 68 1.7 5.2 0.02 0.09 0.09
20260507065516 48 90 0.9 3.5 0.02 0.09 0.09
20260507064516 48 158 0.9 2.6 0.02 0.09 0.09
20260507063516 48 68 0.9 2.6 0.02 0.09 0.09
20260507062536 48 270 0.9 1.7 0.01 0.08 0.08
20260507061516 48 270 0.9 1.7 0.01 0.08 0.08
20260507060516 48 45 0.9 3.5 0.01 0.08 0.08
20260507055517 48 68 0.9 2.6 0.01 0.08 0.08
20260507054516 48 68 1.7 4.3 0.00 0.07 0.07
20260507053516 48 45 0.9 3.5 0.00 0.07 0.07
20260507052516 48 270 0.9 1.7 0.00 0.07 0.07
20260507051517 48 45 1.7 4.3 0.01 0.07 0.07
20260507050536 47 68 2.6 6.1 0.02 0.07 0.07
20260507045516 47 68 2.6 6.1 0.02 0.07 0.07
20260507044516 46 45 3.5 7.0 0.02 0.07 0.07
20260507043516 46 45 1.7 8.7 0.02 0.07 0.07
20260507042516 46 45 2.6 7.0 0.03 0.07 0.07
20260507041516 46 0.0 0.9 0.03 0.06 0.06
20260507040516 47 45 1.7 7.0 0.03 0.06 0.06
20260507035536 47 45 1.7 7.0 0.04 0.05 0.05
20260507034536 47 45 1.7 6.1 0.04 0.05 0.05
20260507033516 47 45 1.7 7.0 0.04 0.05 0.05
20260507032516 48 45 0.9 6.1 0.03 0.04 0.04
20260507031516 47 68 2.6 6.1 0.02 0.03 0.03
20260507030516 46 0.0 1.7 0.02 0.02 0.02
20260507025516 47 0.0 1.7 0.00 0.01 0.01
20260507024516 47 0.0 0.9 0.00 0.01 0.01
20260507023516 47 0.0 0.9 0.00 0.01 0.01
20260507022516 47 0.0 0.9 0.00 0.01 0.01
20260507021516 48 68 0.9 2.6 0.00 0.01 0.01
20260507020536 48 0.0 1.7 0.00 0.01 0.01
20260507015516 49 270 0.9 2.6 0.00 0.01 0.01
20260507014516 48 0.0 0.9 0.00 0.01 0.01
20260507013516 48 0.0 1.7 0.01 0.01 0.01
20260507012516 48 0.0 0.0 0.01 0.01 0.01
20260507011536 48 0.0 0.9 0.01 0.01 0.01
20260507010516 48 0.0 0.9 0.01 0.01 0.01
20260507005516 49 0.0 0.9 0.01 0.01 0.01
20260507004536 49 0.0 1.7 0.01 0.01 0.01
20260507003516 50 0.0 0.9 0.00 0.00 0.00
20260507002536 51 0.0 0.9 0.00 0.00 0.00
20260507001516 53 270 0.9 2.6 0.00 0.00 0.00
20260507000536 53 90 0.9 1.7 0.00 0.00 0.00
20260506235516 53 248 0.9 2.6 0.00 0.00 0.00
20260506234516 52 0.0 0.9 0.00 0.00 0.00
20260506233516 52 270 0.9 2.6 0.00 0.00 0.00
20260506232536 52 0.0 1.7 0.00 0.00 0.00
20260506231516 51 0.0 1.7 0.00 0.00 0.00
20260506230516 51 0.0 0.9 0.00 0.00 0.00
20260506225516 51 0.0 1.7 0.00 0.00 0.00
20260506224516 50 0.0 0.9 0.00 0.00 0.00
20260506223536 51 0.0 1.7 0.00 0.00 0.00
20260506222516 51 0.0 0.9 0.00 0.00 0.00
20260506221516 52 0.0 1.7 0.00 0.00 0.00
20260506220516 53 0.0 0.0 0.00 0.00 0.00
20260506215516 53 0.0 0.9 0.00 0.00 0.00
20260506214536 54 0.0 1.7 0.00 0.00 0.00
20260506213516 54 68 0.9 4.3 0.00 0.00 0.00
20260506212516 54 45 2.6 6.1 0.00 0.00 0.00
20260506211516 54 45 3.5 7.0 0.00 0.00 0.00
20260506210516 54 45 2.6 5.2 0.00 0.00 0.00
20260506205516 54 45 1.7 6.1 0.00 0.00 0.00
20260506204516 54 45 2.6 6.1 0.00 0.00 0.00
20260506203516 54 68 3.5 8.7 0.00 0.00 0.00
20260506202516 54 68 3.5 8.7 0.00 0.00 0.00
20260506201536 54 90 1.7 5.2 0.00 0.00 0.00
20260506200537 54 68 1.7 4.3 0.00 0.00 0.00
20260506195516 53 45 0.9 5.2 0.00 0.00 0.00
20260506194516 53 0.0 0.9 0.00 0.00 0.00
20260506193516 52 90 0.9 2.6 0.00 0.00 0.00
20260506192516 52 0.0 0.9 0.00 0.00 0.00
20260506191516 52 0.0 0.9 0.00 0.00 0.00
20260506190536 52 113 0.9 2.6 0.00 0.00 0.00
20260506185516 52 0.0 0.0 0.00 0.00 0.00
20260506184516 52 0.0 0.9 0.00 0.00 0.00
20260506183516 53 0.0 0.9 0.00 0.00 0.00
20260506182516 53 0.0 0.9 0.00 0.00 0.00
20260506181536 53 0.0 0.9 0.00 0.00 0.00
20260506180516 54 0.0 0.9 0.00 0.00 0.00
20260506175516 54 0.0 0.0 0.00 0.00 0.00
20260506174516 54 0.0 1.7 0.00 0.00 0.00
20260506173516 55 0.0 1.7 0.00 0.00 0.00
20260506172516 55 0.0 0.9 0.00 0.00 0.00
20260506171536 55 0.0 1.7 0.00 0.00 0.00
20260506170516 55 68 0.9 2.6 0.00 0.00 0.00
20260506165516 55 0.0 1.7 0.00 0.00 0.00
20260506164516 55 135 0.9 2.6 0.00 0.00 0.00
20260506163516 56 68 1.7 3.5 0.00 0.00 0.00
20260506162536 56 90 0.9 2.6 0.00 0.00 0.00
20260506161516 56 68 1.7 4.3 0.00 0.00 0.00
20260506160516 56 68 1.7 4.3 0.00 0.00 0.00
20260506155516 57 68 2.6 5.2 0.00 0.00 0.00
20260506154516 56 68 1.7 3.5 0.00 0.00 0.00
20260506153536 56 68 1.7 4.3 0.00 0.00 0.00
20260506152517 56 68 1.7 5.2 0.00 0.00 0.00
20260506151516 56 68 1.7 3.5 0.00 0.00 0.00
20260506150536 56 68 1.7 4.3 0.00 0.00 0.00
20260506145516 55 45 1.7 5.2 0.00 0.00 0.00
20260506144516 55 45 0.9 3.5 0.00 0.00 0.00
20260506143516 54 45 1.7 4.3 0.00 0.00 0.00
20260506142536 54 45 1.7 4.3 0.00 0.00 0.00
20260506141516 54 68 0.9 3.5 0.00 0.00 0.00
20260506140516 54 45 0.9 3.5 0.00 0.00 0.00
20260506135516 55 0.0 1.7 0.00 0.00 0.00
20260506134516 55 0.0 1.7 0.00 0.00 0.00
20260506133516 55 135 0.9 1.7 0.00 0.00 0.00